Regional Weather Roundup
Issued by NWS

Home | Current Version | Previous Version | Graphics & Text | Print | Product List | Glossary On
Versions: 1 2 3 4 5 6 7 8 9 10 11 12 13 14 15 16 17 18 19 20 21 22 23 24 25 26 27 28 29 30 31 32 33 34 35 36 37 38 39 40 41 42 43 44 45 46 47 48 49 50
000
ASUS43 KIND 151959
RWRIN

WEATHER ROUNDUP FOR INDIANA
NATIONAL WEATHER SERVICE INDIANAPOLIS IN
400 PM EDT MON SEP 15 2014

NOTE: "FAIR" INDICATES FEW OR NO CLOUDS BELOW 12,000 FEET WITH NO
SIGNIFICANT WEATHER AND/OR OBSTRUCTIONS TO VISIBILITY.

* - STATION DOES NOT REPORT WEATHER SUCH AS PRECIPITATION OR FOG.

+ - STATION NOT QUALITY CONTROLLED BY THE NATIONAL WEATHER SERVICE.
    USE DATA WITH CAUTION...ESPECIALLY DEWPOINT AND RELATIVE
    HUMIDITY OBSERVATIONS.

INZ001>003-010>013-019-020-152100-
NORTHWEST INDIANA

CITY           SKY/WX    TMP DP  RH WIND       PRES   REMARKS
GARY /AIRPORT/ CLOUDY    59  52  77 SW7       30.09
VALPARAISO     LGT RAIN  56  53  90 SW6       30.09F FOG

$$

LMZ046-743>745-152100-
SOUTHERN LAKE MICHIGAN

STATION/POSITION TIME  TEMP WIND        PRES
                       AIR  DIR/SP/G
                 (UTC) (F)  (DEG/KT/KT) (MB)
MICHIGAN CITY    1900   58  180/ 12/ 15   N/A

$$

INZ004-005-014>016-021>024-152100-
NORTH CENTRAL INDIANA

CITY           SKY/WX    TMP DP  RH WIND       PRES   REMARKS
GOSHEN         CLOUDY    60  50  69 SW9       30.08F
SOUTH BEND     CLOUDY    59  50  72 S7        30.09F
WARSAW +       CLOUDY    55  52  88 SW3       30.09F

$$

INZ006>009-017-018-025>027-152100-
NORTHEAST INDIANA

CITY           SKY/WX    TMP DP  RH WIND       PRES   REMARKS
ANGOLA *+      CLOUDY    59  50  72 S7        30.09F
FORT WAYNE     CLOUDY    57  53  86 S5        30.11F

$$

INZ028-029-035-036-043>045-051>053-152100-
WEST CENTRAL INDIANA

CITY           SKY/WX    TMP DP  RH WIND       PRES   REMARKS
GREENCASTLE +  LGT RAIN  54  54 100 S18       30.00F
LAFAYETTE      CLOUDY    57  54  89 E3        30.07F
TERRE HAUTE    LGT RAIN  60  55  83 S10G20    30.08F

$$

INZ030>032-037>040-046>048-054>057-064-065-152100-
CENTRAL INDIANA

CITY           SKY/WX    TMP DP  RH WIND       PRES   REMARKS
COLUMBUS       LGT RAIN  64  50  59 SE6       30.12F FOG
INDIANAPOLIS   TSTM      56  53  90 SW14      30.11F FOG
-EAGLE CREEK   RAIN      55  52  89 S15G23    30.03F FOG
KOKOMO *+      CLOUDY    57  54  88 N3        30.08F
MT COMFORT *+  CLOUDY    57  57 100 SW7       30.12F
SHELBYVILLE    LGT RAIN  61  56  83 S7        30.13S

$$

INZ033-034-041-042-049-050-058-059-152100-
EAST CENTRAL INDIANA

CITY           SKY/WX    TMP DP  RH WIND       PRES   REMARKS
MUNCIE         LGT RAIN  59  52  77 S13G20    30.07F

$$

INZ060-061-067>069-081>083-085>088-152100-
SOUTHWEST INDIANA

CITY           SKY/WX    TMP DP  RH WIND       PRES   REMARKS
EVANSVILLE     PTSUNNY   76  54  46 SE5       30.10F

$$

INZ062-063-066-070>080-084-089>092-152100-
SOUTH CENTRAL AND SOUTHEAST INDIANA

CITY           SKY/WX    TMP DP  RH WIND       PRES   REMARKS
BLOOMINGTON    TSTM      60  55  83 E8        30.14F

$$




USA.gov is the U.S. government's official web portal to all federal, state and local government web resources and services.